EHI
0 0 0 0 0 0 0 0 0 0 0 0 0 0 0 0 0 0 0 0 0 0 0 0 0 0 0 0 0 0 0 0 0 0 0 0 0 0 0 0 0 0 0
0 0 0 0 0 0 0 0 0 0 0 0 0 0 0 0 0 0 0 0 0 0 0 0 0 0 0 0 0 0 0 0 0 0 0 0 0 0 0 0 0 0 0
0 0 0 0 0 0 0 0 0 0 0 0 0 0 0 0 0 0 0 0 0 0 0 0 0 0 0 0 0 0 0 0 0 0 0 0 0 0 0 0 0 0 0
0 0 0 0 0 0 0 0 0 0 0 0 0 0 0 0 0 0 0 0 0 0 0 0 0 0 0 0 0 0 0 0 0 0 0 0 0 0 0 0 0 0 0
0 0 0 0 0 0 0 0 0 0 0 0 0 0 0 0 0 0 0 0 0 0 0 0 0 0 0 0 0 0 0 0 0 0 0 0 0 0 0 0 0 0 0
0 0 0 0 0 0 0 0 0 0 0 0 0 0 0 0 0 0 0 0 0 0 0 0 0 0 0 0 0 0 0 0 0 0 0 0 0 0 0 0 0 0 0
0 0 0 0 0 0 0 0 0 0 0 0 0 0 0 0 0 0 0 0 0 0 0 0 0 0 0 0 0 0 0 0 0 0 0 0 0 0 0 0 0 0 0
0 0 0 0 0 0 0 0 0 0 0 0 0 0 0 0 0 0 0 0 0 0 0 0 0 0 0 0 0 0 0 0 0 0 0 0 0 0 0 0 0 0 0
0 0 0 0 0 0 0 0 0 0 0 0 0 0 0 0 0 0 0 0 0 0 0 0 0 0 0 0 0 0 0 0 0 0 0 0 0 0 0 0 0 0 0
0 0 0 0 0 0 0 0 0 0 0 0 0 0 0 0 0 0 0 0 0 0 0 0 0 0 0 0 0 0 0 0 0 0 0 0 0 0 0 0 0 0 0
0 0 0 0 0 0 0 0 0 0 0 0 0 0 0 0 0 0 0 0 0 0 0 0 0 0 0 0 0 0 0 0 0 0 0 0 0 0 0 0 0 0 0
0 0 0 0 0 0 0 0 0 0 0 0 0 0 0 0 0 0 0 0 0 0 0 0 0 0 0 0 0 0 0 0 0 0 0 0 0 0 0 0 0 0 0
0 0 0 0 0 0 0 0 0 0 0 0 0 0 0 0 0 0 0 0 0 0 0 0 0 0 0 0 0 0 0 0 0 0 0 0 0 0 0 0 0 0 0
0 0 0 0 0 0 0 0 0 0 0 0 0 0 0 0 0 0 0 0 0 0 0 0 0 0 0 0 0 0 0 0 0 0 0 0 0 0 0 0 0 0 0
0 0 0 0 0 0 0 0 0 0 0 0 0 0 0 0 0 0 0 0 0 0 0 0 0 0 0 0 0 0 0 0 0 0 0 0 0 0 0 0 0 0 0
0 0 0 0 0 0 0 0 0 0 0 0 0 0 0 0 0 0 0 0 0 0 0 0 0 0 0 0 0 0 0 0 0 0 0 0 0 0 0 0 0 0 0
0 0 0 0 0 0 0 0 0 0 0 0 0 0 0 0 0 0 0 0 0 0 0 0 0 0 0 0 0 0 0 0 0 0 0 0 0 0 0 0 0 0 0
0 0 0 0 0 0 0 0 0 0 0 0 0 0 0 0 0 0 0 0 0 0 0 0 0 0 0 0 0 0 0 0 0 0 0 0 0 0 0 0 0 0 0
0 0 0 0 0 0 0 0 0 0 0 0 0 0 0 0 0 0 0 0 0 0 0 0 0 0 0 0 0 0 0 0 0 0 0 0 0 0 0 0 0 0 0
0 0 0 0 0 0 0 0 0 0 0 0 0 0 0 0 0 0 0 0 0 0 0 0 0 0 0 0 0 0 0 0 0 0 0 0 0 0 0 0 0 0 0
0 0 0 0 0 0 0 0 0 0 0 0 0 0 0 0 0 0 0 0 0 0 0 0 0 0 0 0 0 0 0 0 0 0 0 0 0 0 0 0 0 0 0
0 0 0 0 0 0 0 0 0 0 0 0 0 0 0 0 0 0 0 0 0 0 0 0 0 0 0 0 0 0 0 0 0 0 0 0 0 0 0 0 0 0 0
0 0 0 0 0 0 0 0 0 0 0 0 0 0 0 0 0 0 0 0 0 0 0 0 0 0 0 0 0 0 0 0 0 0 0 0 0 0 0 0 0 0 0
0 0 0 0 0 0 0 0 0 0 0 0 0 0 0 0 0 0 0 0 0 0 0 0 0 0 0 0 0 0 0 0 0 0 0 0 0 0 0 0 0 0 0
0 0 0 0 0 0 0 0 0 0 0 0 0 0 0 0 0 0 0 0 0 0 0 0 0 0 0 0 0 0 0 0 0 0 0 0 0 0 0 0 0 0 0
0 0 0 0 0 0 0 0 0 0 0 0 0 0 0 0 0 0 0 0 0 0 0 0 0 0 0 0 0 0 0 0 0 0 0 0 0 0 0 0 0 0 0
Wind_Speed
10 9 10 10 10 10 9 10 9 9 9 9 9 9 9 9 8 7 8 7 8 7 7 7 7 7 5 4 3 3 3 3 2 3 3 3 2 3 2 3 3 3 2
10 10 10 10 10 10 10 10 9 9 9 9 9 9 9 8 7 7 7 7 7 7 7 7 7 6 6 6 4 5 4 4 2 3 2 2 2 2 3 4 3 3 3
10 10 10 10 10 10 10 9 9 9 9 9 8 8 8 8 7 7 7 7 7 7 7 7 7 6 6 6 5 5 4 3 2 1 2 2 1 2 3 3 3 2 4
9 10 10 9 9 9 9 8 8 8 8 8 7 7 7 7 7 6 6 6 6 7 6 6 7 7 7 6 4 4 4 3 2 1 1 1 1 2 2 3 3 2 3
9 10 9 9 8 9 9 8 8 7 7 7 7 7 7 6 7 6 5 6 6 6 6 6 7 8 8 7 6 6 5 3 2 2 2 2 3 4 4 4 4 4 2
8 8 8 8 8 8 8 7 7 7 7 6 6 6 7 8 8 8 6 5 5 5 5 5 5 4 4 2 3 5 6 5 5 4 3 4 4 4 4 5 4 5 3
8 8 7 7 7 7 7 7 7 7 6 6 6 7 8 9 7 7 8 3 4 4 4 4 4 5 2 4 2 5 3 2 3 5 5 5 5 5 6 6 5 6 5
7 7 7 6 7 6 6 7 6 6 6 6 6 7 7 8 6 6 9 1 4 3 3 4 4 4 6 6 5 3 2 2 0 3 4 5 5 5 6 6 6 6 5
7 6 6 6 6 6 6 6 5 5 5 5 6 6 6 8 7 7 10 1 3 3 3 5 5 5 7 7 5 3 2 1 4 5 5 6 7 7 7 6 5 5 4
6 6 6 6 6 6 6 5 5 4 5 5 6 6 6 7 7 7 11 2 3 2 3 4 7 6 6 7 6 4 4 4 4 1 4 7 7 6 9 6 6 6 5
6 5 6 6 5 5 5 4 4 4 5 4 4 5 6 6 6 7 9 5 5 3 3 4 6 5 4 5 6 5 5 7 6 4 2 2 1 1 1 2 4 5 5
5 6 6 5 4 5 4 4 4 3 3 3 3 4 4 5 5 5 5 5 7 4 4 5 6 4 3 4 4 5 7 9 5 3 3 3 3 3 3 4 4 4 4
5 6 6 5 4 4 3 4 3 2 2 3 3 4 4 4 5 3 2 1 3 4 4 4 3 4 5 3 1 5 6 4 4 4 3 3 3 3 3 2 2 2 4
6 5 5 5 4 4 2 3 3 3 3 3 3 4 4 4 4 3 2 2 3 2 0 3 6 5 4 2 1 2 3 4 5 4 4 4 3 3 3 3 3 2 2
5 5 4 5 5 4 5 5 5 7 7 5 5 4 4 5 7 8 7 7 7 7 7 3 1 2 2 3 4 4 4 4 4 4 4 4 4 4 3 3 3 4 3
5 4 3 3 3 3 5 6 6 5 4 4 5 6 5 6 4 4 4 5 6 8 7 3 3 3 4 4 5 4 4 4 5 5 5 4 4 4 4 3 4 4 4
4 3 2 3 3 3 3 4 5 5 3 2 1 1 3 3 3 3 4 4 6 7 3 3 4 4 4 5 5 5 5 5 5 5 5 5 5 5 4 4 4 5 5
4 4 2 2 2 2 2 2 2 3 5 5 5 4 2 1 2 3 5 6 3 2 2 3 3 3 3 4 4 5 5 5 4 5 5 5 5 5 5 5 4 5 6
2 3 2 2 2 2 2 1 2 2 2 2 4 6 6 5 6 4 6 3 3 3 3 3 3 4 4 4 4 4 5 4 5 5 4 5 5 5 5 6 5 4 5
3 3 1 0 2 2 2 1 1 1 1 1 1 2 3 3 2 2 1 2 3 3 4 3 3 4 4 4 4 4 4 4 4 4 4 5 5 5 6 6 6 6 5
3 5 5 3 1 1 1 1 1 1 1 1 2 5 5 3 1 2 2 2 3 3 3 4 3 3 3 4 4 5 5 4 4 5 5 5 5 5 5 5 6 6 5
1 2 2 1 1 1 1 1 1 1 1 1 1 5 4 4 2 2 2 2 2 2 3 3 4 4 4 5 5 5 5 5 5 5 6 6 6 5 6 6 6 6 6
2 1 1 1 1 2 2 1 1 1 1 1 0 0 1 1 1 1 2 2 2 2 2 2 3 3 4 4 4 4 5 6 6 7 7 7 6 6 5 6 6 6 6
2 2 1 1 1 1 1 1 1 1 0 0 0 1 0 1 1 2 2 1 1 1 1 2 3 4 5 4 4 4 6 7 9 7 8 8 7 6 6 5 6 7 6
2 1 1 1 1 1 1 1 1 1 1 1 1 1 1 1 1 1 1 1 1 1 1 2 2 2 3 4 5 6 6 5 6 8 9 8 7 6 6 6 5 6 5
2 2 2 1 1 1 1 1 1 1 1 1 1 1 1 2 1 1 1 1 1 1 1 1 1 2 3 3 4 5 3 5 6 7 9 8 7 5 6 6 6 5 4
Wind_Direction
68 71 77 78 79 80 79 79 79 78 77 76 74 73 71 68 65 66 70 72 71 69 67 66 57 43 43 50 55 54 43 31 69 84 80 83 38 348 4 331 322 309 111
73 72 72 75 75 75 76 75 76 75 74 74 72 72 71 69 66 69 73 74 74 73 70 68 64 59 50 39 40 51 53 38 44 76 73 67 37 349 351 315 325 336 327
76 75 72 71 72 73 74 74 75 74 72 72 72 72 72 72 71 70 73 75 73 72 69 65 61 56 50 47 34 44 50 56 40 53 60 45 355 17 324 314 329 316 305
78 77 73 70 73 75 74 71 72 72 72 72 72 72 73 72 72 74 77 78 77 74 70 65 56 50 43 34 37 34 29 30 42 12 30 21 16 10 319 333 337 337 333
84 81 78 76 75 75 74 73 73 73 74 75 76 77 75 71 56 48 72 80 80 81 75 70 64 55 39 17 11 12 8 356 2 4 12 16 20 358 356 339 340 331 348
89 87 86 83 79 77 76 77 76 74 72 74 76 77 72 63 39 19 9 77 76 74 71 71 95 89 83 95 39 9 356 352 0 349 10 16 10 2 355 331 340 336 340
94 94 92 88 84 81 81 79 78 79 79 78 77 76 77 69 42 22 1 26 69 60 51 41 46 67 8 38 126 202 208 226 295 327 351 358 355 8 341 334 349 334 331
100 97 95 93 91 87 82 81 81 80 81 80 78 78 79 70 42 16 338 359 66 57 43 35 32 35 32 357 351 11 27 91 206 289 337 331 343 340 322 307 300 291 284
105 102 98 95 93 89 84 83 85 87 87 88 82 76 75 78 44 8 331 44 74 62 51 41 15 35 44 341 319 347 4 39 183 226 267 283 296 287 291 298 311 316 339
105 101 95 90 88 85 85 87 89 93 92 89 82 74 72 72 53 15 337 348 57 62 88 103 75 27 8 337 325 348 4 2 338 286 234 234 242 229 228 267 313 329 341
99 95 93 93 94 91 91 91 95 93 87 81 84 86 81 71 81 40 3 352 9 21 53 67 73 43 1 334 313 344 351 316 307 313 316 313 299 283 247 287 323 323 336
98 95 95 91 85 91 94 95 95 98 111 103 97 99 100 95 60 60 25 9 337 359 29 40 61 23 343 327 330 350 310 290 303 340 352 357 1 9 6 345 336 325 314
104 95 91 88 82 84 97 107 113 114 93 87 89 90 91 95 112 150 181 269 313 338 35 36 353 303 273 224 196 293 294 319 347 352 0 7 5 6 331 327 314 297 277
109 103 102 99 95 88 77 82 76 69 71 74 69 74 85 89 61 42 54 141 201 226 315 170 214 248 272 336 265 274 344 13 348 346 350 353 354 348 347 356 343 327 320
116 114 109 99 91 93 79 48 40 55 34 16 33 39 45 61 44 11 348 8 1 8 333 330 21 41 12 16 14 15 2 4 354 354 349 345 350 350 349 351 334 328 339
128 124 116 110 103 106 116 116 68 56 82 56 24 2 54 55 28 7 358 343 327 320 312 0 21 20 9 4 0 360 4 7 354 344 343 348 350 343 340 338 339 341 340
111 104 105 106 113 108 109 120 132 141 158 151 112 18 0 5 348 330 317 307 295 295 303 20 18 12 2 355 354 352 358 4 344 333 341 342 342 336 334 333 342 346 345
123 116 125 116 105 103 106 107 109 127 147 154 162 177 193 239 289 292 285 277 247 247 4 18 13 4 1 355 353 353 350 348 346 338 341 338 339 335 335 339 346 350 339
124 110 103 96 119 117 113 114 103 94 95 109 132 149 183 199 212 244 266 294 3 12 16 14 9 4 1 357 351 345 339 338 347 331 337 338 335 331 335 338 342 344 316
117 80 321 196 139 128 129 116 106 115 123 109 82 85 144 193 194 168 198 6 359 11 9 6 10 1 352 345 341 338 333 335 338 331 342 336 332 330 334 335 338 337 337
140 141 192 226 141 83 83 93 100 102 117 120 86 68 358 321 19 32 22 16 4 7 6 350 346 348 351 343 346 348 342 339 344 343 338 334 331 330 328 329 334 336 340
152 141 159 106 91 71 46 116 123 117 116 116 126 138 186 265 345 6 13 13 9 3 3 343 337 354 2 351 351 337 336 343 349 345 336 328 324 324 329 334 341 340 342
195 158 150 136 130 134 214 192 149 138 131 118 58 65 176 330 351 349 359 7 0 357 356 345 330 349 7 355 342 334 344 350 344 335 323 319 321 324 327 333 333 335 350
177 190 187 161 184 189 176 169 176 186 177 148 268 289 331 326 319 345 331 344 347 346 343 342 347 4 359 342 326 350 26 1 333 317 318 314 312 317 323 327 331 345 348
196 205 210 175 188 192 185 215 210 208 218 221 252 273 278 285 291 285 294 315 307 324 335 328 334 350 353 349 354 16 30 347 320 316 307 298 304 312 317 323 332 339 347
207 219 233 210 197 217 223 227 221 227 236 237 244 261 278 280 280 289 282 281 289 286 287 294 334 341 335 335 31 26 357 328 316 302 297 295 304 327 333 324 330 331 350